FENGYUN 1C DEB, 41826

Orbit data source: Space-Track

FENGYUN 1C DEB, 41826 is space debris in SSO originally from a launch on Mon, 10 May 1999 UTC launched from the Taiyaun Space Center, China (TSC). Fengyun 1C debris stems from the Chinese weather satellite Fengyun-1C, which was intentionally destroyed by a Chinese anti-satellite missile in 2007. This event dramatically increased the amount of space debris, with thousands of trackable fragments posing hazards to satellites and human spaceflight. The Fengyun 1C debris cloud has become a focal point in discussions about space sustainability and the need for international regulations to prevent the creation of new debris.

Loading next visibility...
Identifier
41826, 1999-025EYD
Orbit
SSO
Country
Flag of CNCN / PRC
Related business
Manufacturer
Unknown
Mission
Spacecraft
Bus & Motor
Unknown
Mass
Unknown
Launch date (UTC)
1999-05-10 (27 years ago)
Launch vehicle
Unknown
Launch site
Taiyaun Space Center, China (TSC)
Object type
Payload
Rocket body
Debris
Shape & HBR
Unknown shape, 0.1 m
Radar Cross Section
Small (<0.1 m²)

Expand to show TLE details & history
Last TLE update: 2 days ago

TLE from 2 days ago
0 FENGYUN 1C DEB
1 41826U 99025EYD 26255.65348928  .00001746  00000-0  74946-3 0  9992
2 41826  98.7152 324.5795 0055582 149.5171 210.9259 14.25194035512609
Epoch: 2026-09-12T15:41Z
TLE epoch observation values (Epoch: 2026-09-12T15:41:01.473Z)
Latitude
-0.00004°
Longitude
97.66397°
Altitude
845.09 km
Speed
7.412 km/s
True Right ascension
21h 38m 19s
True Declination
0° 00' 00"
Sunlit
Object was in full shadow at epoch
Visualization orbit readout
Latitude
Unknown
Longitude
Unknown
Altitude
Unknown
Speed
Unknown
Apparent Right ascension
Unknown
Apparent Declination
Unknown
Sunlit
N/A
Visualization observer readout
Local Sidereal Time
00:22:52
Azimuth
Unknown
Elevation
Unknown
Doppler factor
Unknown
Orbital elements
Apogee altitude
844.917 km
Perigee altitude
765.067 km
Semi-major axis
7,183.129 km
Eccentricity
0.00556
Inclination
98.7152°
RAAN
324.5795°
Arg. of periapsis
149.5171°
True anomaly
210.60051°
Mean anomaly
210.9259°
Eccentric anomaly
210.76301°
Mean motion
3.56511 °/min
Orbital period
100.98 mins
BSTAR
0.00074946
Loading maneuver chart data...
Computing Atmospheric mass density...

Documentation

Showing up to 5 results
|